Weather History for Sidney-Richland, MT

Change the Weather History Date:

Tuesday, March 12, 2013

  Actual Average Record
Temperature  
Mean Temperature 22 °F -  
Max Temperature 32 °F 42 °F 77 °F (2007)
Min Temperature 12 °F 18 °F -20 °F (1960)
Degree Days  
Heating Degree Days 43    
Moisture  
Dew Point 13 °F    
Average Humidity 71    
Maximum Humidity 85    
Minimum Humidity 51    
Precipitation  
Precipitation 0.00 in - - ()
Sea Level Pressure  
Sea Level Pressure 30.29 in    
Wind  
Wind Speed 12 mph (WNW)    
Max Wind Speed 21 mph    
Max Gust Speed 23 mph    
Visibility 10 miles    
Events      
Averages and records for this station are not official NWS values.
T = Trace of Precipitation, MM = Missing Value Source: NWS Daily Summary

Daily Weather History Graph

Daily Weather History Graph

Search for Another Location

Airport:

Trip Planner

Search our weather history database for the weather conditions in past years. The results will help you decide how hot, cold, wet, or windy it might be!

Date:

Astronomy

Mar. 12, 2013 Rise Set
Actual Time 7:15 AM MDT 6:58 PM MDT
Civil Twilight 6:44 AM MDT 7:29 PM MDT
Nautical Twilight 6:08 AM MDT 8:05 PM MDT
Astronomical Twilight 5:32 AM MDT 8:41 PM MDT
Moon 7:16 AM MDT (3/12) 8:25 PM MDT (3/12)
Length of Visible Light 12h 44m
Length of Day
11h 43m
New Moon, 1% of the Moon is Illuminated
Mar 12
New Moon
Mar 19
First Quarter
Mar 27
Full
Apr 2
Last Quarter
Apr 10
New

Hourly Weather History & Observations

Time (MDT) Temp. Windchill Dew Point Humidity Pressure Visibility Wind Dir Wind Speed Gust Speed Precip Events Conditions
12:15 AM 19.4 °F 3.6 °F 12.2 °F 74% 30.22 in 10.0 mi NW 19.6 mph 23.0 mph N/A   Overcast
12:35 AM 19.4 °F 5.0 °F 12.2 °F 74% 30.22 in 10.0 mi NW 16.1 mph - N/A   Overcast
12:55 AM 17.6 °F 0.9 °F 12.2 °F 79% 30.22 in 10.0 mi NW 20.7 mph - N/A   Scattered Clouds
1:35 AM 17.6 °F 2.7 °F 10.4 °F 73% 30.24 in 10.0 mi NW 16.1 mph 21.9 mph N/A   Partly Cloudy
1:55 AM 17.6 °F 2.7 °F 10.4 °F 73% 30.25 in 10.0 mi WNW 16.1 mph 20.7 mph N/A   Clear
2:15 AM 17.6 °F 2.7 °F 10.4 °F 73% 30.26 in 10.0 mi WNW 16.1 mph 23.0 mph N/A   Clear
2:35 AM 15.8 °F 0.3 °F 10.4 °F 79% 30.27 in 10.0 mi WNW 16.1 mph - N/A   Clear
2:55 AM 15.8 °F 2.1 °F 8.6 °F 73% 30.28 in 10.0 mi WNW 12.7 mph 19.6 mph N/A   Clear
3:15 AM 15.8 °F 0.9 °F 8.6 °F 73% 30.28 in 10.0 mi WNW 15.0 mph - N/A   Clear
3:35 AM 15.8 °F 2.7 °F 8.6 °F 73% 30.28 in 10.0 mi WNW 11.5 mph - N/A   Partly Cloudy
3:55 AM 15.8 °F 1.4 °F 8.6 °F 73% 30.29 in 10.0 mi WNW 13.8 mph - N/A   Partly Cloudy
4:15 AM 14.0 °F -1.4 °F 8.6 °F 79% 30.28 in 10.0 mi WNW 15.0 mph - N/A   Clear
4:35 AM 14.0 °F -2.0 °F 8.6 °F 79% 30.29 in 10.0 mi WNW 16.1 mph - N/A   Clear
4:55 AM 15.8 °F 3.4 °F 8.6 °F 73% 30.30 in 10.0 mi WNW 10.4 mph - N/A   Clear
5:15 AM 14.0 °F 0.5 °F 6.8 °F 73% 30.31 in 10.0 mi WNW 11.5 mph - N/A   Clear
5:35 AM 12.2 °F -0.2 °F 8.6 °F 85% 30.31 in 10.0 mi WNW 9.2 mph - N/A   Clear
5:55 AM 12.2 °F -1.0 °F 8.6 °F 85% 30.32 in 10.0 mi WNW 10.4 mph - N/A   Clear
6:15 AM 12.2 °F -1.8 °F 8.6 °F 85% 30.32 in 10.0 mi WNW 11.5 mph - N/A   Clear
6:35 AM 12.2 °F -2.5 °F 6.8 °F 79% 30.32 in 10.0 mi WNW 12.7 mph - N/A   Clear
6:55 AM 12.2 °F -3.7 °F 6.8 °F 79% 30.32 in 10.0 mi WNW 15.0 mph - N/A   Clear
7:15 AM 12.2 °F -1.8 °F 6.8 °F 79% 30.32 in 10.0 mi WNW 11.5 mph - N/A   Clear
7:35 AM 12.2 °F -1.8 °F 6.8 °F 79% 30.32 in 10.0 mi WNW 11.5 mph - N/A   Clear
7:55 AM 12.2 °F -1.0 °F 8.6 °F 85% 30.33 in 10.0 mi WNW 10.4 mph - N/A   Clear
8:15 AM 14.0 °F 1.2 °F 8.6 °F 79% 30.34 in 10.0 mi WNW 10.4 mph - N/A   Clear
8:55 AM 15.8 °F 2.7 °F 10.4 °F 79% 30.33 in 10.0 mi WNW 11.5 mph - N/A   Clear
9:15 AM 17.6 °F 3.7 °F 10.4 °F 73% 30.34 in 10.0 mi WNW 13.8 mph - N/A   Clear
9:35 AM 17.6 °F 5.0 °F 12.2 °F 79% 30.35 in 10.0 mi WNW 11.5 mph - N/A   Clear
9:55 AM 17.6 °F 5.0 °F 12.2 °F 79% 30.35 in 10.0 mi WNW 11.5 mph - N/A   Clear
10:15 AM 19.4 °F 7.9 °F 12.2 °F 74% 30.35 in 10.0 mi WNW 10.4 mph - N/A   Clear
10:35 AM 19.4 °F 7.9 °F 12.2 °F 74% 30.36 in 10.0 mi NW 10.4 mph - N/A   Clear
10:55 AM 21.2 °F 11.7 °F 12.2 °F 68% 30.35 in 10.0 mi WNW 8.1 mph - N/A   Clear
11:15 AM 21.2 °F 11.7 °F 12.2 °F 68% 30.36 in 10.0 mi NW 8.1 mph - N/A   Clear
11:35 AM 21.2 °F 13.6 °F 15.8 °F 80% 30.35 in 10.0 mi WNW 5.8 mph - N/A   Clear
11:55 AM 21.2 °F 13.6 °F 14.0 °F 74% 30.35 in 10.0 mi WNW 5.8 mph - N/A   Clear
12:15 PM 23.0 °F 18.4 °F 14.0 °F 68% 30.35 in 10.0 mi West 3.5 mph - N/A   Clear
12:35 PM 24.8 °F 16.9 °F 15.8 °F 69% 30.35 in 10.0 mi WNW 6.9 mph - N/A   Clear
1:15 PM 24.8 °F 19.1 °F 15.8 °F 69% 30.34 in 10.0 mi WNW 4.6 mph - N/A   Clear
1:55 PM 26.6 °F 21.2 °F 15.8 °F 64% 30.33 in 10.0 mi West 4.6 mph - N/A   Clear
2:15 PM 26.6 °F 21.2 °F 15.8 °F 64% 30.32 in 10.0 mi NNW 4.6 mph - N/A   Clear
2:35 PM 28.4 °F - 14.0 °F 55% 30.31 in 10.0 mi Calm Calm - N/A   Clear
2:55 PM 28.4 °F 24.6 °F 15.8 °F 59% 30.30 in 10.0 mi NW 3.5 mph - N/A   Clear
3:15 PM 28.4 °F 23.3 °F 14.0 °F 55% 30.29 in 10.0 mi NW 4.6 mph - N/A   Clear
3:35 PM 28.4 °F - 12.2 °F 51% 30.29 in 10.0 mi Calm Calm - N/A   Clear
3:55 PM 28.4 °F - 14.0 °F 55% 30.30 in 10.0 mi Calm Calm - N/A   Clear
4:15 PM 30.2 °F 26.7 °F 15.8 °F 55% 30.29 in 10.0 mi ESE 3.5 mph - N/A   Clear
4:55 PM 32.0 °F 26.4 °F 15.8 °F 51% 30.28 in 10.0 mi ESE 5.8 mph - N/A   Clear
5:15 PM 30.2 °F 24.3 °F 15.8 °F 55% 30.27 in 10.0 mi East 5.8 mph - N/A   Clear
5:55 PM 28.4 °F 22.2 °F 15.8 °F 59% 30.26 in 10.0 mi ESE 5.8 mph - N/A   Clear
6:35 PM 26.6 °F 17.5 °F 15.8 °F 64% 30.25 in 10.0 mi East 9.2 mph - N/A   Clear
6:55 PM 26.6 °F 19.1 °F 17.6 °F 69% 30.25 in 10.0 mi ESE 6.9 mph - N/A   Clear
7:15 PM 26.6 °F 19.1 °F 17.6 °F 69% 30.24 in 10.0 mi SE 6.9 mph - N/A   Clear
7:35 PM 24.8 °F 16.1 °F 15.8 °F 69% 30.24 in 10.0 mi SE 8.1 mph - N/A   Clear
7:55 PM 24.8 °F 17.9 °F 17.6 °F 74% 30.23 in 10.0 mi SE 5.8 mph - N/A   Clear
8:15 PM 24.8 °F 17.9 °F 17.6 °F 74% 30.23 in 10.0 mi SE 5.8 mph - N/A   Clear
8:55 PM 24.8 °F 19.1 °F 15.8 °F 69% 30.23 in 10.0 mi East 4.6 mph - N/A   Clear
9:15 PM 24.8 °F 19.1 °F 15.8 °F 69% 30.22 in 10.0 mi ESE 4.6 mph - N/A   Clear
9:35 PM 24.8 °F 19.1 °F 17.6 °F 74% 30.21 in 10.0 mi ESE 4.6 mph - N/A   Scattered Clouds
9:55 PM 26.6 °F 20.0 °F 15.8 °F 64% 30.20 in 10.0 mi ESE 5.8 mph - N/A   Overcast
10:15 PM 24.8 °F 19.1 °F 15.8 °F 69% 30.19 in 10.0 mi ESE 4.6 mph - N/A   Overcast
10:35 PM 24.8 °F 16.1 °F 15.8 °F 69% 30.19 in 10.0 mi SSE 8.1 mph - N/A   Overcast
10:55 PM 24.8 °F 16.1 °F 15.8 °F 69% 30.19 in 10.0 mi South 8.1 mph - N/A   Overcast
11:55 PM 26.6 °F 20.0 °F 17.6 °F 69% 30.18 in 10.0 mi SSE 5.8 mph - N/A   Overcast